カタログに戻る

SCOUT G-1 R/B

運用中PO
NORAD 17071·ROCKET BODY·🇺🇸 United States

打ち上げ Nov 14, 1986 から Vandenberg Space Force Base

Loading…

次のパス (今後24時間)

TLE

最新Source: Space-Track

元期: Sep 14, 2026, 11:59 UTC

1 17071U 86088B   26257.49979006  .00000096  00000-0  87625-4 0  9999
2 17071  89.6096 163.9266 0038469 350.4421   9.6008 13.75643506998007

AllMySatでSCOUT G-1 R/Bをリアルタイム追跡

Download on the App Store